Palmdale - Butte, CA

10:53 PM PDT on September 21, 2017 (GMT -0700)
Palmdale - Butte

Weather History for KGXA - February, 2014

Change the Weather History Date:

Monday, February 10, 2014

  Actual Average (KPMD) Record (KPMD)
Temperature  
Mean Temperature 55 °F -  
Max Temperature 64 °F 60 °F 79 °F (1951)
Min Temperature 44 °F 35 °F 16 °F (1933)
Degree Days  
Heating Degree Days 10    
Growing Degree Days 5 (Base 50)    
Moisture  
Dew Point 37 °F    
Average Humidity 53    
Maximum Humidity 69    
Minimum Humidity 30    
Precipitation  
Precipitation 0.00 in - - ()
Sea Level Pressure  
Sea Level Pressure 30.11 in    
Wind  
Wind Speed 11 mph (West)    
Max Wind Speed 21 mph    
Max Gust Speed 30 mph    
Averages and records for this station are not official NWS values.
T = Trace of Precipitation, MM = Missing Value Source: NWS Daily Summary

Daily Weather History Graph

Daily Weather History Graph

Search for Another Location

Airport or City:

Trip Planner

Search our weather history database for the weather conditions in past years. The results will help you decide how hot, cold, wet, or windy it might be!

Date:

Astronomy

Feb. 10, 2014 Rise Set
Actual Time 6:40 AM PST 5:29 PM PST
Civil Twilight 6:15 AM PST 5:55 PM PST
Nautical Twilight 5:45 AM PST 6:24 PM PST
Astronomical Twilight 5:15 AM PST 6:54 PM PST
Moon 2:06 PM PST (2/10) 3:33 AM PST (2/10)
Length of Visible Light 11h 40m
Length of Day
10h 48m
Waxing Gibbous, 85% of the Moon is Illuminated
Feb 10
Waxing Gibbous
Feb 14
Full
Feb 22
Last Quarter
Mar 1
New
Mar 8
First Quarter

Hourly Weather History & Observations

Time (PST) Temp. Windchill Dew Point Humidity Pressure Visibility Wind Dir Wind Speed Gust Speed Precip Events Conditions
12:55 AM 48.6 °F - 34.3 °F 58% 30.09 in - NW 2.3 mph - N/A   Unknown
1:55 AM 47.3 °F - 32.2 °F 56% 30.07 in - WSW 4.6 mph - N/A   Unknown
2:55 AM 56.5 °F - 39.2 °F 52% 30.03 in - WNW 15.0 mph 23.0 mph N/A   Unknown
3:55 AM 53.2 °F - 39.0 °F 59% 30.06 in - WNW 13.8 mph 19.6 mph N/A   Unknown
4:55 AM 53.1 °F - 41.9 °F 66% 30.08 in - West 16.1 mph 25.3 mph N/A   Unknown
5:55 AM 53.4 °F - 43.0 °F 68% 30.09 in - WNW 16.1 mph 25.3 mph N/A   Unknown
6:55 AM 53.2 °F - 43.0 °F 68% 30.12 in - West 18.4 mph 29.9 mph N/A   Unknown
7:55 AM 55.2 °F - 42.3 °F 62% 30.14 in - WNW 16.1 mph 24.2 mph N/A   Unknown
8:55 AM 57.6 °F - 41.4 °F 55% 30.16 in - WNW 20.7 mph 27.6 mph N/A   Unknown
9:55 AM 59.4 °F - 39.4 °F 48% 30.16 in - WNW 17.3 mph 24.2 mph N/A   Unknown
10:55 AM 61.5 °F - 38.7 °F 43% 30.15 in - WNW 17.3 mph 25.3 mph N/A   Unknown
11:55 AM 62.6 °F - 36.0 °F 37% 30.12 in - WNW 15.0 mph 27.6 mph N/A   Unknown
12:55 PM 64.6 °F - 33.4 °F 31% 30.09 in - NW 19.6 mph 24.2 mph N/A   Unknown
1:55 PM 64.4 °F - 32.5 °F 30% 30.07 in - WNW 15.0 mph 23.0 mph N/A   Unknown
2:55 PM 64.2 °F - 32.2 °F 30% 30.05 in - WNW 13.8 mph 21.9 mph N/A   Unknown
3:55 PM 62.8 °F - 32.2 °F 32% 30.06 in - WNW 13.8 mph 20.7 mph N/A   Unknown
5:58 PM 55.4 °F - 37.4 °F 51% 30.09 in - West 11.5 mph 20.7 mph N/A   Unknown
6:55 PM 52.3 °F - 39.2 °F 61% 30.12 in - WNW 12.7 mph - N/A   Unknown
7:55 PM 50.0 °F - 35.6 °F 58% 30.15 in - West 9.2 mph - N/A   Unknown
8:55 PM 50.4 °F - 36.7 °F 59% 30.14 in - West 8.1 mph - N/A   Unknown
9:55 PM 48.2 °F - 35.2 °F 61% 30.15 in - WSW 8.1 mph - N/A   Unknown
10:55 PM 46.8 °F - 35.6 °F 65% 30.16 in - West 5.8 mph - N/A   Unknown
11:55 PM 44.8 °F 41.6 °F 35.1 °F 69% 30.17 in - SW 5.8 mph - N/A   Unknown